Regional Weather Roundup
Issued by NWS Jackson, KY

Home | Current Version | Previous Version | Graphics & Text | Print | Product List | Glossary On
Versions: 1 2 3 4 5 6 7 8 9 10 11 12 13 14 15 16 17 18 19 20 21 22 23 24 25 26 27 28 29 30 31 32 33 34 35 36 37 38 39 40 41 42 43 44 45 46 47 48 49 50
000
ASUS43 KJKL 301719
RWRJKL

EAST KENTUCKY HOURLY WEATHER ROUNDUP
NATIONAL WEATHER SERVICE JACKSON KY
1200 PM EST FRI JAN 30 2015

NOTE: "FAIR" INDICATES FEW OR NO CLOUDS BELOW 12,000 FEET WITH
NO SIGNIFICANT WEATHER AND/OR OBSTRUCTIONS TO VISIBILITY.

* THESE REPORTS ARE NOT UNDER NWS QUALITY CONTROL AND MAY NOT
  REPORT WEATHER SUCH AS PRECIPITATION AND FOG.

KYZ079-080-083-085-087-088-110-112-115-119-120-301800
...EASTERN KENTUCKY...

CITY           SKY/WX    TMP DP  RH WIND       PRES   REMARKS
JACKSON        CLOUDY    32  18  56 NW13G24   30.35S WCI  22
LONDON         CLOUDY    37  19  48 NW8G20    30.38R WCI  31
SOMERSET*      PTSUNNY   36  19  51 N12       30.43S WCI  27
MONTICELLO*    PTSUNNY   40  23  50 N15G21    30.46R WCI  32
MIDDLESBORO*   CLOUDY    37  20  50 N12       30.38R WCI  29
HARLAN APT*    CLOUDY    34  23  64 NW8       30.33S WCI  27
HAZARD APT*    CLOUDY    34  25  69 NW13G18   30.36R WCI  25
BLACK MTN*       N/A     19  19 100 N6          N/A  WCI  11
PIKEVILLE APT* CLOUDY    30  23  74 NW14      30.32R WCI  20
BIG SANDY*     CLOUDY    31  21  68 N7G17     30.35R WCI  24
MOREHEAD APT*  PTSUNNY   30  16  55 NW15      30.43S WCI  19
ASHLAND*       PTSUNNY   28  16  59 N13       30.41R WCI  18
$$

KYZ035-036-041-042-044-050-067-078-099-301800
...CENTRAL KENTUCKY...

CITY           SKY/WX    TMP DP  RH WIND       PRES   REMARKS
MT STERLING*   MOSUNNY   32  18  55 N15G23    30.43S WCI  22
FLEMING/MASON* MOSUNNY   28  14  56 N13G24    30.45R WCI  17
DANVILLE*      PTSUNNY   34  25  69 N15       30.44R WCI  24
RICHMOND*      CLOUDY    32  23  69 N14       30.42R WCI  22
LEXINGTON      CLOUDY    32  18  56 N20       30.44R WCI  20
FRANKFORT      MOSUNNY   33  15  47 NW14G24   30.45R WCI  23
$$

KYZ091>093-OHZ055-061-077-WVZ005-015-034-035-042-301800
...SOUTHERN OHIO/WEST VIRGINIA...

CITY           SKY/WX    TMP DP  RH WIND       PRES   REMARKS
COLUMBUS       PTSUNNY   23  11  60 N20G26    30.40S WCI   8
DAYTON         CLOUDY    24  13  62 NW16G23   30.45S WCI  11
WILMINGTON     CLOUDY    23  11  60 N15       30.43R WCI  10
HUNTINGTON     MOSUNNY   30  12  47 NW12G23   30.39R WCI  20
CHARLESTON     PTSUNNY   29  13  51 W12G28    30.33R WCI  19
PINEVILLE*     LGT SNOW  32  26  80 MISG      30.29R
BECKLEY        LGT SNOW  25  17  72 NW20G29   30.17S WCI  11
BLUEFIELD      LGT SNOW  27  18  69 NW10G25   30.15R WCI  17
$$

VAZ002-007-008-TNZ017-027-036-066-071-301800
...SOUTHWEST VIRGINIA/EAST TENNESSEE...

CITY           SKY/WX    TMP DP  RH WIND       PRES   REMARKS
WISE*          FLURRIES  30  21  69 NW13G18   30.24S WCI  20
JONESVILLE*    CLOUDY    34  21  60 W13       30.36S WCI  25
ABINGDON*      CLOUDY    33  20  58 NW9       30.25S WCI  26
BRISTOL        PTSUNNY   37  22  54 W16G22    30.29S WCI  28
KNOXVILLE      PTSUNNY   39  22  50 N9        30.39R WCI  33
OAK RIDGE      MOSUNNY   39  20  46 NW9G17    30.41R WCI  33
CROSSVILLE     CLOUDY    36  21  54 NW10      30.38R WCI  28
NASHVILLE      MOSUNNY   42  21  43 N14G20    30.50R
$$

...KEY TO REMARKS...
VSB - VISIBILITY IN MILES
WCI - WIND CHILL INDEX
HX  - HEAT INDEX

$$



USA.gov is the U.S. government's official web portal to all federal, state and local government web resources and services.